QPF
0.00 0.00 0.00 0.00 0.00 0.00 0.01 0.01 0.02 0.02 0.02 0.02 0.01 0.02 0.05 0.06 0.08 0.09 0.07 0.09 0.12 0.13 0.12 0.11 0.11 0.11 0.10 0.09 0.10 0.10 0.10 0.11 0.11 0.12 0.12 0.13 0.12 0.12
0.01 0.01 0.00 0.00 0.00 0.00 0.00 0.01 0.01 0.02 0.02 0.01 0.01 0.02 0.04 0.05 0.07 0.07 0.06 0.07 0.10 0.12 0.10 0.10 0.09 0.09 0.09 0.08 0.07 0.08 0.09 0.08 0.09 0.10 0.11 0.11 0.12 0.12
0.01 0.01 0.00 0.00 0.00 0.00 0.00 0.01 0.01 0.02 0.02 0.01 0.02 0.03 0.04 0.05 0.06 0.08 0.07 0.07 0.08 0.10 0.09 0.08 0.09 0.08 0.07 0.07 0.06 0.05 0.06 0.07 0.07 0.07 0.08 0.08 0.09 0.09
0.02 0.02 0.01 0.01 0.00 0.01 0.01 0.01 0.01 0.02 0.02 0.02 0.02 0.03 0.04 0.05 0.07 0.08 0.08 0.08 0.08 0.10 0.10 0.10 0.09 0.08 0.07 0.06 0.05 0.04 0.04 0.04 0.04 0.04 0.05 0.06 0.07 0.08
0.02 0.02 0.01 0.01 0.01 0.01 0.01 0.02 0.03 0.04 0.03 0.03 0.03 0.04 0.05 0.06 0.07 0.08 0.10 0.09 0.08 0.08 0.09 0.10 0.10 0.10 0.08 0.06 0.05 0.04 0.04 0.03 0.03 0.03 0.04 0.05 0.06 0.07
0.04 0.03 0.02 0.01 0.01 0.01 0.01 0.02 0.04 0.04 0.04 0.04 0.04 0.04 0.04 0.05 0.07 0.07 0.08 0.08 0.08 0.06 0.07 0.07 0.07 0.07 0.07 0.06 0.05 0.04 0.04 0.04 0.04 0.04 0.04 0.05 0.06 0.08
0.05 0.03 0.02 0.02 0.01 0.01 0.02 0.03 0.03 0.03 0.04 0.04 0.04 0.04 0.04 0.05 0.06 0.05 0.07 0.06 0.06 0.07 0.07 0.05 0.04 0.03 0.04 0.04 0.04 0.03 0.03 0.03 0.03 0.03 0.03 0.03 0.04 0.06
0.05 0.04 0.03 0.02 0.01 0.02 0.02 0.02 0.02 0.02 0.03 0.04 0.04 0.04 0.04 0.04 0.04 0.04 0.05 0.06 0.07 0.06 0.05 0.06 0.04 0.04 0.03 0.03 0.04 0.03 0.03 0.03 0.03 0.03 0.03 0.03 0.03 0.03
0.05 0.04 0.03 0.02 0.02 0.02 0.02 0.04 0.03 0.03 0.04 0.04 0.05 0.04 0.05 0.03 0.03 0.04 0.05 0.05 0.05 0.05 0.04 0.06 0.05 0.04 0.03 0.03 0.04 0.04 0.03 0.02 0.02 0.02 0.02 0.02 0.02 0.01
0.07 0.06 0.04 0.03 0.02 0.02 0.02 0.02 0.03 0.03 0.03 0.03 0.03 0.04 0.05 0.05 0.06 0.05 0.05 0.06 0.06 0.06 0.04 0.05 0.05 0.04 0.02 0.02 0.02 0.02 0.02 0.02 0.01 0.01 0.01 0.01 0.01 0.01
0.13 0.09 0.05 0.04 0.04 0.03 0.02 0.02 0.02 0.03 0.04 0.04 0.04 0.06 0.07 0.07 0.07 0.06 0.06 0.07 0.09 0.10 0.06 0.04 0.04 0.03 0.02 0.01 0.01 0.01 0.01 0.01 0.01 0.01 0.00 0.01 0.01 0.00
0.16 0.17 0.09 0.04 0.04 0.04 0.03 0.02 0.02 0.03 0.03 0.05 0.07 0.08 0.08 0.09 0.09 0.08 0.07 0.07 0.08 0.10 0.08 0.06 0.04 0.03 0.02 0.01 0.01 0.00 0.00 0.00 0.00 0.00 0.00 0.00 0.00 0.00
0.15 0.18 0.14 0.09 0.05 0.04 0.04 0.03 0.03 0.03 0.03 0.05 0.07 0.08 0.08 0.09 0.10 0.09 0.08 0.07 0.06 0.07 0.06 0.04 0.04 0.03 0.02 0.01 0.00 0.00 0.00 0.00 0.00 0.00 0.00 0.00 0.00 0.00
0.18 0.20 0.16 0.11 0.08 0.06 0.05 0.05 0.04 0.03 0.03 0.04 0.07 0.09 0.09 0.09 0.10 0.09 0.09 0.09 0.07 0.07 0.05 0.02 0.02 0.01 0.01 0.01 0.01 0.01 0.00 0.00 0.00 0.00 0.00 0.00 0.00 0.00
0.18 0.26 0.25 0.13 0.07 0.06 0.07 0.06 0.04 0.03 0.03 0.03 0.06 0.08 0.08 0.07 0.07 0.08 0.09 0.08 0.07 0.06 0.05 0.03 0.02 0.01 0.00 0.00 0.00 0.00 0.00 0.00 0.00 0.00 0.00 0.00 0.00 0.00
0.19 0.24 0.28 0.21 0.10 0.07 0.08 0.07 0.05 0.04 0.04 0.04 0.05 0.07 0.07 0.06 0.06 0.06 0.06 0.07 0.07 0.05 0.03 0.02 0.01 0.00 0.00 0.00 0.00 0.00 0.00 0.00 0.00 0.00 0.00 0.00 0.00 0.00
0.21 0.24 0.24 0.23 0.14 0.07 0.06 0.06 0.05 0.05 0.06 0.05 0.04 0.05 0.06 0.06 0.05 0.04 0.04 0.05 0.05 0.03 0.02 0.01 0.01 0.00 0.00 0.00 0.00 0.00 0.00 0.00 0.00 0.00 0.00 0.00 0.00 0.00
0.22 0.23 0.25 0.22 0.15 0.09 0.06 0.05 0.05 0.05 0.05 0.04 0.03 0.04 0.04 0.05 0.05 0.03 0.03 0.03 0.02 0.01 0.01 0.01 0.01 0.00 0.00 0.00 0.00 0.00 0.00 0.00 0.00 0.00 0.00 0.00 0.00 0.00
0.22 0.20 0.22 0.21 0.15 0.09 0.06 0.04 0.04 0.04 0.04 0.04 0.03 0.03 0.03 0.03 0.02 0.02 0.02 0.01 0.01 0.01 0.00 0.00 0.00 0.00 0.00 0.00 0.00 0.00 0.00 0.00 0.00 0.00 0.00 0.00 0.00 0.00
0.21 0.17 0.18 0.17 0.13 0.08 0.05 0.03 0.03 0.03 0.03 0.03 0.02 0.02 0.02 0.02 0.02 0.01 0.01 0.00 0.00 0.00 0.00 0.00 0.00 0.00 0.00 0.00 0.00 0.00 0.00 0.00 0.00 0.00 0.00 0.00 0.00 0.00
0.16 0.16 0.15 0.14 0.12 0.08 0.05 0.03 0.02 0.02 0.03 0.03 0.02 0.02 0.01 0.01 0.01 0.01 0.01 0.00 0.00 0.00 0.00 0.00 0.00 0.00 0.00 0.00 0.00 0.00 0.00 0.00 0.00 0.00 0.00 0.00 0.00 0.00
0.10 0.10 0.10 0.10 0.09 0.06 0.03 0.02 0.01 0.02 0.02 0.02 0.02 0.01 0.01 0.01 0.00 0.01 0.00 0.00 0.00 0.00 0.00 0.00 0.00 0.00 0.00 0.00 0.00 0.00 0.00 0.00 0.00 0.00 0.00 0.00 0.00 0.00
0.06 0.07 0.06 0.07 0.06 0.03 0.02 0.01 0.01 0.01 0.01 0.01 0.01 0.01 0.00 0.00 0.00 0.00 0.00 0.00 0.00 0.00 0.00 0.00 0.00 0.00 0.00 0.00 0.00 0.00 0.00 0.00 0.00 0.00 0.00 0.00 0.00 0.00
MSLP
1008.98 1009.24 1009.51 1009.75 1009.95 1010.07 1010.10 1010.02 1009.83 1009.54 1009.15 1008.69 1008.17 1007.63 1007.09 1006.59 1006.16 1005.80 1005.55 1005.41 1005.39 1005.48 1005.67 1005.96 1006.32 1006.73 1007.19 1007.69 1008.20 1008.72 1009.24 1009.76 1010.26 1010.73 1011.17 1011.57 1011.94 1012.27
1008.15 1008.32 1008.52 1008.73 1008.94 1009.11 1009.22 1009.26 1009.20 1009.04 1008.78 1008.43 1008.01 1007.53 1007.03 1006.55 1006.10 1005.73 1005.45 1005.28 1005.23 1005.30 1005.47 1005.73 1006.07 1006.46 1006.90 1007.36 1007.84 1008.33 1008.82 1009.31 1009.79 1010.26 1010.69 1011.09 1011.45 1011.79
1007.33 1007.40 1007.53 1007.70 1007.91 1008.12 1008.31 1008.44 1008.50 1008.47 1008.34 1008.11 1007.78 1007.39 1006.95 1006.51 1006.09 1005.74 1005.47 1005.31 1005.26 1005.33 1005.50 1005.76 1006.09 1006.47 1006.88 1007.31 1007.76 1008.21 1008.67 1009.13 1009.59 1010.04 1010.47 1010.87 1011.25 1011.61
1006.55 1006.54 1006.61 1006.76 1006.96 1007.20 1007.44 1007.65 1007.80 1007.87 1007.84 1007.70 1007.46 1007.14 1006.77 1006.39 1006.03 1005.73 1005.51 1005.40 1005.40 1005.52 1005.73 1006.02 1006.37 1006.75 1007.15 1007.56 1007.97 1008.39 1008.81 1009.24 1009.67 1010.11 1010.54 1010.95 1011.35 1011.74
1005.85 1005.79 1005.82 1005.95 1006.15 1006.40 1006.67 1006.92 1007.12 1007.23 1007.25 1007.17 1006.99 1006.73 1006.42 1006.11 1005.83 1005.61 1005.49 1005.48 1005.58 1005.79 1006.08 1006.44 1006.84 1007.25 1007.66 1008.06 1008.46 1008.85 1009.23 1009.63 1010.03 1010.45 1010.87 1011.30 1011.71 1012.12
1005.24 1005.16 1005.19 1005.31 1005.51 1005.76 1006.02 1006.26 1006.45 1006.55 1006.57 1006.48 1006.32 1006.09 1005.84 1005.60 1005.42 1005.32 1005.33 1005.46 1005.70 1006.05 1006.47 1006.94 1007.42 1007.89 1008.34 1008.76 1009.15 1009.51 1009.87 1010.24 1010.61 1011.01 1011.42 1011.84 1012.26 1012.67
1004.70 1004.65 1004.69 1004.82 1005.01 1005.24 1005.46 1005.65 1005.77 1005.81 1005.76 1005.63 1005.44 1005.22 1005.01 1004.85 1004.77 1004.81 1004.98 1005.28 1005.71 1006.23 1006.81 1007.42 1008.02 1008.58 1009.09 1009.55 1009.94 1010.31 1010.64 1010.98 1011.33 1011.70 1012.08 1012.48 1012.89 1013.29
1004.23 1004.22 1004.29 1004.43 1004.61 1004.80 1004.96 1005.05 1005.07 1005.01 1004.86 1004.65 1004.40 1004.16 1003.98 1003.89 1003.93 1004.12 1004.46 1004.95 1005.58 1006.29 1007.05 1007.82 1008.55 1009.22 1009.81 1010.31 1010.74 1011.11 1011.44 1011.76 1012.08 1012.41 1012.76 1013.13 1013.51 1013.88
1003.79 1003.83 1003.94 1004.10 1004.26 1004.40 1004.47 1004.46 1004.36 1004.16 1003.89 1003.59 1003.28 1003.03 1002.87 1002.85 1003.00 1003.34 1003.85 1004.53 1005.34 1006.24 1007.17 1008.09 1008.95 1009.73 1010.40 1010.97 1011.43 1011.82 1012.16 1012.46 1012.76 1013.06 1013.38 1013.71 1014.04 1014.37
1003.36 1003.46 1003.61 1003.77 1003.91 1003.99 1003.98 1003.87 1003.65 1003.34 1002.96 1002.58 1002.22 1001.96 1001.84 1001.89 1002.15 1002.61 1003.27 1004.10 1005.07 1006.11 1007.18 1008.22 1009.19 1010.06 1010.81 1011.43 1011.95 1012.37 1012.72 1013.03 1013.32 1013.60 1013.88 1014.17 1014.46 1014.75
1002.94 1003.08 1003.26 1003.43 1003.55 1003.58 1003.51 1003.31 1003.01 1002.61 1002.18 1001.75 1001.38 1001.14 1001.06 1001.19 1001.53 1002.10 1002.86 1003.80 1004.86 1005.99 1007.13 1008.24 1009.28 1010.20 1011.01 1011.69 1012.25 1012.72 1013.10 1013.43 1013.72 1014.00 1014.26 1014.52 1014.78 1015.02
1002.53 1002.70 1002.89 1003.07 1003.17 1003.18 1003.07 1002.84 1002.50 1002.08 1001.64 1001.22 1000.89 1000.69 1000.68 1000.88 1001.29 1001.92 1002.74 1003.71 1004.80 1005.94 1007.09 1008.21 1009.25 1010.20 1011.03 1011.75 1012.35 1012.86 1013.29 1013.66 1013.98 1014.27 1014.54 1014.79 1015.02 1015.25
1002.14 1002.33 1002.54 1002.71 1002.82 1002.83 1002.72 1002.50 1002.18 1001.80 1001.41 1001.06 1000.81 1000.70 1000.76 1001.02 1001.48 1002.13 1002.95 1003.90 1004.93 1006.02 1007.11 1008.17 1009.17 1010.09 1010.92 1011.65 1012.30 1012.85 1013.34 1013.76 1014.12 1014.45 1014.74 1015.00 1015.24 1015.46
1001.82 1002.02 1002.23 1002.42 1002.54 1002.56 1002.49 1002.32 1002.08 1001.79 1001.51 1001.28 1001.14 1001.13 1001.28 1001.60 1002.08 1002.71 1003.48 1004.34 1005.27 1006.24 1007.21 1008.16 1009.07 1009.93 1010.73 1011.47 1012.14 1012.74 1013.28 1013.77 1014.19 1014.57 1014.89 1015.18 1015.44 1015.67
1001.59 1001.79 1002.01 1002.21 1002.35 1002.42 1002.41 1002.32 1002.19 1002.04 1001.90 1001.81 1001.81 1001.92 1002.15 1002.51 1002.99 1003.58 1004.25 1004.99 1005.78 1006.58 1007.40 1008.21 1009.01 1009.79 1010.54 1011.26 1011.95 1012.59 1013.19 1013.73 1014.22 1014.64 1015.02 1015.34 1015.63 1015.88
1001.49 1001.70 1001.92 1002.12 1002.29 1002.40 1002.47 1002.48 1002.47 1002.46 1002.48 1002.54 1002.68 1002.90 1003.21 1003.60 1004.06 1004.58 1005.15 1005.75 1006.37 1007.01 1007.66 1008.33 1009.01 1009.70 1010.40 1011.10 1011.80 1012.47 1013.10 1013.69 1014.23 1014.70 1015.11 1015.46 1015.77 1016.04
1001.54 1001.75 1001.97 1002.18 1002.37 1002.52 1002.65 1002.75 1002.86 1002.98 1003.13 1003.33 1003.59 1003.91 1004.28 1004.68 1005.12 1005.58 1006.04 1006.51 1006.99 1007.47 1007.98 1008.52 1009.09 1009.71 1010.35 1011.03 1011.72 1012.40 1013.06 1013.67 1014.23 1014.72 1015.15 1015.52 1015.84 1016.12
1001.75 1001.95 1002.16 1002.36 1002.55 1002.73 1002.90 1003.08 1003.27 1003.49 1003.75 1004.06 1004.41 1004.80 1005.20 1005.62 1006.03 1006.44 1006.82 1007.19 1007.55 1007.93 1008.33 1008.78 1009.28 1009.83 1010.44 1011.09 1011.76 1012.43 1013.07 1013.68 1014.23 1014.71 1015.12 1015.48 1015.78 1016.05
1002.07 1002.26 1002.45 1002.64 1002.81 1002.99 1003.18 1003.39 1003.64 1003.92 1004.25 1004.63 1005.04 1005.47 1005.90 1006.32 1006.72 1007.09 1007.42 1007.73 1008.04 1008.36 1008.70 1009.10 1009.55 1010.07 1010.64 1011.26 1011.89 1012.53 1013.14 1013.70 1014.20 1014.64 1015.01 1015.32 1015.60 1015.84
1002.45 1002.62 1002.79 1002.94 1003.09 1003.25 1003.43 1003.65 1003.91 1004.23 1004.59 1005.00 1005.44 1005.89 1006.34 1006.77 1007.16 1007.52 1007.85 1008.15 1008.44 1008.74 1009.08 1009.46 1009.90 1010.40 1010.94 1011.52 1012.11 1012.68 1013.22 1013.71 1014.14 1014.50 1014.80 1015.06 1015.28 1015.49
1002.82 1002.97 1003.10 1003.21 1003.33 1003.45 1003.61 1003.82 1004.07 1004.39 1004.76 1005.18 1005.63 1006.09 1006.55 1006.99 1007.40 1007.77 1008.12 1008.44 1008.76 1009.09 1009.45 1009.84 1010.29 1010.77 1011.29 1011.82 1012.35 1012.84 1013.29 1013.69 1014.02 1014.29 1014.51 1014.69 1014.87 1015.04
1003.09 1003.21 1003.31 1003.38 1003.46 1003.56 1003.70 1003.88 1004.12 1004.43 1004.79 1005.21 1005.66 1006.13 1006.60 1007.06 1007.49 1007.90 1008.28 1008.65 1009.01 1009.39 1009.78 1010.21 1010.66 1011.13 1011.62 1012.09 1012.54 1012.95 1013.30 1013.59 1013.81 1013.99 1014.13 1014.26 1014.38 1014.53
1003.21 1003.30 1003.36 1003.41 1003.47 1003.55 1003.67 1003.84 1004.07 1004.37 1004.74 1005.15 1005.60 1006.08 1006.56 1007.04 1007.50 1007.95 1008.37 1008.79 1009.20 1009.63 1010.06 1010.50 1010.96 1011.41 1011.85 1012.26 1012.63 1012.95 1013.20 1013.39 1013.52 1013.62 1013.70 1013.78 1013.87 1014.01
Thickness
5688 5689 5690 5692 5693 5693 5692 5690 5688 5688 5691 5696 5698 5703 5705 5706 5708 5710 5711 5713 5714 5714 5715 5715 5716 5717 5718 5719 5719 5720 5720 5720 5720 5720 5720 5719 5718 5718
5681 5683 5684 5686 5687 5688 5688 5687 5687 5685 5686 5691 5692 5695 5696 5699 5701 5702 5704 5706 5707 5707 5708 5709 5710 5711 5712 5713 5714 5714 5715 5715 5715 5715 5715 5714 5714 5713
5673 5676 5678 5680 5681 5682 5683 5683 5683 5682 5683 5686 5687 5689 5689 5690 5692 5694 5696 5697 5698 5699 5700 5701 5703 5703 5703 5704 5706 5706 5707 5708 5707 5707 5708 5708 5707 5707
5664 5667 5671 5673 5675 5676 5677 5678 5678 5679 5678 5679 5681 5681 5682 5683 5684 5685 5687 5688 5689 5689 5691 5692 5693 5693 5693 5694 5696 5697 5698 5698 5698 5698 5699 5699 5699 5699
5655 5659 5663 5665 5667 5669 5671 5672 5673 5675 5675 5675 5675 5676 5676 5676 5676 5677 5677 5677 5678 5678 5679 5680 5681 5682 5683 5684 5685 5686 5686 5687 5687 5688 5688 5688 5689 5689
5644 5650 5654 5658 5661 5662 5665 5667 5668 5668 5668 5669 5670 5669 5669 5670 5669 5668 5667 5667 5667 5667 5668 5668 5669 5670 5672 5673 5674 5675 5675 5675 5675 5676 5676 5677 5677 5677
5632 5638 5645 5650 5655 5657 5659 5661 5662 5662 5662 5663 5664 5664 5664 5662 5662 5661 5659 5657 5656 5656 5657 5656 5658 5658 5659 5660 5662 5663 5663 5664 5664 5665 5665 5666 5666 5666
5617 5626 5633 5640 5646 5650 5653 5656 5657 5658 5659 5659 5659 5660 5659 5658 5657 5655 5653 5651 5647 5647 5648 5645 5647 5647 5647 5649 5650 5651 5652 5652 5653 5653 5654 5654 5655 5655
5603 5612 5621 5629 5635 5639 5644 5649 5652 5654 5656 5657 5657 5657 5656 5656 5653 5650 5648 5646 5643 5641 5640 5636 5636 5636 5637 5637 5639 5640 5641 5641 5642 5643 5644 5644 5645 5645
5590 5599 5608 5616 5623 5628 5633 5638 5643 5647 5650 5652 5653 5654 5654 5652 5650 5647 5643 5638 5635 5633 5634 5629 5626 5626 5626 5626 5628 5629 5630 5631 5632 5633 5634 5634 5634 5635
5577 5586 5595 5604 5612 5618 5623 5629 5634 5638 5642 5645 5647 5648 5647 5646 5644 5640 5635 5632 5627 5624 5625 5622 5618 5616 5615 5615 5617 5618 5620 5621 5622 5623 5624 5624 5624 5624
5566 5574 5584 5592 5599 5607 5614 5620 5624 5629 5633 5636 5637 5638 5639 5638 5638 5636 5633 5629 5624 5618 5618 5616 5612 5611 5606 5606 5607 5608 5610 5611 5613 5614 5615 5615 5615 5616
5556 5564 5572 5580 5588 5596 5604 5611 5617 5621 5624 5626 5628 5629 5630 5630 5629 5629 5628 5627 5623 5618 5616 5614 5609 5608 5606 5601 5600 5601 5602 5603 5604 5605 5606 5607 5608 5609
5549 5556 5563 5569 5577 5585 5593 5600 5606 5611 5614 5616 5618 5619 5620 5621 5621 5621 5620 5619 5619 5618 5615 5613 5609 5606 5603 5599 5596 5595 5595 5596 5598 5598 5599 5600 5601 5601
5542 5548 5555 5560 5567 5575 5583 5590 5596 5602 5605 5607 5608 5610 5611 5613 5613 5611 5610 5609 5608 5609 5609 5609 5607 5604 5602 5598 5594 5591 5590 5590 5592 5592 5592 5593 5594 5594
5535 5540 5546 5552 5560 5567 5574 5582 5588 5593 5597 5599 5600 5601 5602 5603 5604 5604 5602 5601 5599 5597 5599 5601 5602 5601 5596 5593 5591 5588 5587 5586 5586 5587 5587 5586 5587 5587
5530 5533 5539 5546 5553 5560 5568 5574 5579 5585 5588 5591 5592 5593 5594 5595 5595 5595 5594 5593 5592 5590 5589 5590 5592 5593 5592 5590 5585 5583 5582 5581 5582 5582 5581 5580 5580 5581
5527 5531 5537 5544 5551 5557 5564 5569 5573 5577 5581 5584 5586 5587 5588 5588 5587 5587 5588 5588 5586 5584 5584 5584 5585 5584 5581 5579 5581 5579 5578 5577 5576 5577 5577 5575 5573 5574
5525 5531 5536 5542 5547 5553 5560 5565 5568 5572 5576 5579 5581 5582 5583 5582 5582 5581 5581 5581 5579 5578 5578 5579 5580 5579 5575 5572 5572 5576 5575 5573 5572 5571 5571 5570 5569 5569
5525 5530 5535 5540 5546 5551 5556 5561 5565 5568 5571 5574 5576 5577 5578 5578 5578 5577 5576 5576 5575 5573 5573 5574 5575 5576 5574 5571 5570 5570 5573 5571 5569 5566 5565 5563 5563 5562
5525 5530 5535 5540 5545 5551 5555 5560 5564 5566 5569 5571 5573 5574 5574 5575 5574 5574 5573 5573 5572 5571 5570 5570 5572 5573 5571 5569 5566 5565 5567 5568 5568 5564 5561 5557 5554 5552
5527 5532 5536 5541 5546 5551 5556 5560 5563 5565 5567 5569 5570 5571 5571 5573 5572 5572 5571 5570 5570 5569 5569 5567 5567 5567 5567 5565 5562 5562 5561 5562 5562 5561 5559 5557 5551 5547
5531 5535 5539 5543 5548 5552 5556 5560 5563 5564 5566 5568 5569 5570 5571 5571 5571 5571 5570 5570 5569 5567 5566 5564 5563 5563 5563 5561 5559 5557 5557 5556 5553 5552 5551 5552 5550 5547